Tracking 30009 objects as of 7-Dec-2024
HD Live streaming from Space Station
objects crossing your sky now

STARLINK-30774

Track STARLINK-30774 now!
10-day predictions
STARLINK-30774 is classified as:


NORAD ID: 58625
Int'l Code: 2023-203H
Perigee: 494.3 km
Apogee: 496.0 km
Inclination: 43.0 °
Period: 94.4 minutes
Semi major axis: 6866 km
RCS: Unknown
Launch date: December 23, 2023
Source: United States (US)
Launch site: AIR FORCE EASTERN TEST RANGE (AFETR)
Your satellite tracking list
Your tracking list is empty




NASA's NSSDC Master Catalog

Two Line Element Set (TLE):
1 58625U 23203H   24341.79586033 -.00000854  00000-0 -22803-4 0  9999
2 58625  43.0038 132.0586 0001236 265.3151  94.7559 15.25911247 53549
Source of the keplerian elements: AFSPC